Torna al catalogo

STARLINK-37185

AttivoComunicazioniVLEO
NORAD 68340·PAYLOAD·🇺🇸 United States

Lanciato Mar 22, 2026 da Cape Canaveral Space Force Station

Loading…

Prossimi Passaggi (prossime 24 ore)

TLE

AggiornatoSource: CelesTrak SupGP

Epoca: Sep 15, 2026, 02:51 UTC

1 68340C 26059V   26258.11923611 -.00042582  00000+0 -12580-2 0  2588
2 68340  53.1584 180.8524 0001446  74.6071 299.1781 15.34412701    13

Traccia STARLINK-37185 in tempo reale con AllMySat

Download on the App Store